User: anonymous   Login
Location: Unspecified
(0.0000°N, 0.0000°E)
Time: 00:12:26
(UTC+00:00)
Language:

Olympus - Orbit

View from above orbital plane
View from above orbital plane
View from above satellite
View from above satellite

Ground track
Ground track

The orbit data is extracted from the following two-line orbital elements,

1 20122U 89053A   18112.03660472 -.00000084  00000-0  00000+0 0  9995
2 20122  14.8128 359.9908 0015126 283.7771 269.3324  1.01367758 90675
Epoch (UTC): 22 April 2018 00:52:42
Eccentricity: 0.0015126
inclination: 14.8128°
perigee height: 35418 km
apogee height: 35545 km
right ascension of ascending node: 359.9908°
argument of perigee: 283.7771°
revolutions per day: 1.01367758
mean anomaly at epoch: 269.3324°
orbit number at epoch: 9067

The dashed part of the orbit path shows where the satellite is in the earth's shadow,  

DLR